Regional Weather Roundup
Issued by NWS

Home | Current Version | Previous Version | Text Only | Print | Product List | Glossary On
Versions: 1 2 3 4 5 6 7 8 9 10 11 12 13 14 15 16 17 18 19 20 21 22 23 24 25 26 27 28 29 30 31 32 33 34 35 36 37 38 39 40 41 42 43 44 45 46 47 48 49 50
000
ASUS43 KMKX 230221
RWRWI

WISCONSIN REGIONAL WEATHER ROUNDUP
NATIONAL WEATHER SERVICE MILWAUKEE/SULLIVAN WI
900 PM CDT WED OCT 22 2014

NOTE: "FAIR" INDICATES FEW OR NO CLOUDS BELOW 12,000 FEET WITH NO
SIGNIFICANT WEATHER AND/OR OBSTRUCTIONS TO VISIBILITY.

WIZ001-002-006>008-014>016-023>028-230300-
NORTHWEST WISCONSIN

CITY           SKY/WX    TMP DP  RH WIND       PRES   REMARKS
SUPERIOR ARPT  PTCLDY    53  35  51 CALM      30.06R
ASHLAND        MOCLDY    53  32  44 S8        30.09S
HAYWARD        MOCLDY    53  34  48 S12G20    30.09S
SIREN          CLOUDY    55  33  43 S8G16     30.07R
CUMBERLAND     MOCLDY    52  34  50 SE9       30.09F
RICE LAKE      MOCLDY    54  35  50 SE12      30.11F
CHETEK         CLOUDY    53  37  53 SE14G22   30.11F
LADYSMITH      CLOUDY    52  36  54 SE12      30.16R
EAU CLAIRE     CLOUDY    56  36  47 S8        30.13S
MENOMONIE      CLOUDY    50  43  77 SE7       30.11F
NEW RICHMOND   CLOUDY    54  37  53 SE10G17   30.07S
OSCEOLA        CLOUDY    55  38  54 SE9G16    30.09S
$$

WIZ003>005-009-010-017-018-230300-
NORTH CENTRAL WISCONSIN

CITY           SKY/WX    TMP DP  RH WIND       PRES   REMARKS
MANITOWISH WTR MOCLDY    46  32  58 S10       30.15S
ARBOR VITAE    PTCLDY    46  34  62 S7        30.17R
WOODRUFF       PTCLDY    46  34  62 S7        30.17R
RHINELANDER    CLEAR     42  32  67 SE6       30.19S
EAGLE RIVER    CLEAR     41  31  65 S5        30.18S
LAND O LAKES   CLEAR     43  31  62 S6        30.19R
PHILLIPS       CLOUDY    47  34  59 S8        30.15R
TOMAHAWK       CLEAR     42  32  67 CALM      30.18S
MEDFORD        CLEAR     45  35  68 SE8       30.17S
MERRILL        CLEAR     42  35  74 SE6       30.19S
$$

WIZ029-030-035-036-043>047-230300-
CENTRAL WISCONSIN

CITY           SKY/WX    TMP DP  RH WIND       PRES   REMARKS
WAUSAU         CLEAR     43  35  73 SE3       30.19S
MOSINEE        CLEAR     43  37  81 SE6       30.20F
MARSHFIELD     CLEAR     45  35  68 S7        30.18S
STEVENS POINT  CLEAR     42  33  72 SE3       30.21F
WAUPACA        CLEAR     43  39  85 SE5       30.23S
WAUTOMA        MOCLDY    39  35  85 SE3       30.23S
WISC RAPIDS    CLEAR     45  35  68 SE8       30.21F
CAMP DOUGLAS   PTCLDY    45  37  76 SE5       30.19S
$$

WIZ011>013-019>022-031-037>040-048>050-230300-
NORTHEAST WISCONSIN

CITY           SKY/WX    TMP DP  RH WIND       PRES   REMARKS
ANTIGO         CLEAR     38  34  85 SE7       30.21R WCI  32
SHAWANO        CLEAR     43  38  84 SE5       30.25S
OCONTO         CLEAR     41  41  97 S3        30.26S
STURGEON BAY   CLEAR     39  34  81 S7        30.27S WCI  34
GREEN BAY      CLEAR     39  36  89 SE5       30.26S
MANITOWOC      CLEAR     41  38  89 CALM      30.28R
APPLETON       PTCLDY    43  37  81 SE8       30.24F
CLINTONVILLE   CLEAR     41  37  87 SE3       30.24S
OSHKOSH        CLEAR     40  38  93 S6        30.24S
$$

WIZ032>034-041-042-053>061-230300-
SOUTHWEST WISCONSIN

CITY           SKY/WX    TMP DP  RH WIND       PRES   REMARKS
LA CROSSE      MOCLDY    55  37  50 S8        30.16F
SPARTA         CLEAR     40  34  77 CALM      30.19S
VIROQUA        CLEAR     48  36  63 S7        30.18S
BOSCOBEL       CLEAR     38  34  85 CALM      30.21S
PRAIRIE DU CHI CLEAR     49  36  61 E8        30.18F
PLATTEVILLE    CLEAR     46  35  63 SE8       30.22S
$$

WIZ056-057-062-063-064-067-068-230300-
SOUTH CENTRAL WISCONSIN

CITY           SKY/WX    TMP DP  RH WIND       PRES   REMARKS
REEDSBURG      CLEAR     46  36  68 E5        30.20F
BARABOO/DELLS  CLEAR     42  35  77 SE5       30.21F
LONE ROCK      CLEAR     44  34  67 SE7       30.22S
MINERAL POINT  CLEAR     45  34  65 SE6       30.22R
MADISON        PTCLDY    46  36  68 SE8       30.24R
MIDDLETON      CLEAR     38  36  94 CALM      30.24S
WATERTOWN      CLEAR     41  39  91 SE5       30.26R
MONROE         CLEAR     46  34  61 S8        30.24R
JANESVILLE     CLEAR     45  37  76 SE8       30.25R
$$

WIZ051-052-058>065-066-070>072-230300-
SOUTHEAST WISCONSIN

CITY           SKY/WX    TMP DP  RH WIND       PRES   REMARKS
MILWAUKEE      PTCLDY    43  36  76 SE5       30.27S
WAUKESHA       CLEAR     39  36  87 SE5       30.27S
MILWAUKEE/TIMM CLEAR     43  36  75 CALM      30.28S
RACINE         CLEAR     42  35  76 SE5       30.29S
BURLINGTON     CLEAR     35  34  96 CALM      30.27S
KENOSHA        CLEAR     38  35  89 SE6       30.27S WCI  33
FOND DU LAC    CLEAR     40  36  86 SE6       30.25S
SHEBOYGAN      CLEAR     35  32  88 CALM      30.27S
WEST BEND      CLEAR     37  34  87 CALM      30.26F
JUNEAU         CLEAR     41  38  87 SE10      30.26R FOG
$$

LSZ147-162-230300-
LAKE SUPERIOR

STATION/POSITION TIME  TEMP    WIND        PRES    WAVE
                       AIR SEA DIR/SP/G            HT/PER
                 (UTC) (F)     (DEG/KT/KT) (MB)    (FT/S)
W MID LAKE BUOY  0150   50 46  150/ 10/ 12 1019.5F   1/ 3
DEVILS ISLAND    0200   55     170/  7/  9 1018.8S
PORT WING        0100   55     170/  4/  6 1018.6R
SAXON HARBOR     0100   57     190/  8/ 13 1018.6S
$$

LMZ867-665-643>646-230300-
LAKE MICHIGAN

STATION/POSITION TIME  TEMP    WIND        PRES    WAVE
                       AIR SEA DIR/SP/G            HT/PER
                 (UTC) (F)     (DEG/KT/KT) (MB)    (FT/S)
CHAMBERS ISLAND  0140   41     140/  3/  6 1025.1S
N MID LAKE BUOY  0150   45 51  160/ 10/ 12 1025.7F   0
NORTHPORT PIER   0100   39     170/  3/  5 1024.7F
SISTER BAY       0013          140/  5/  6   N/A
ALGOMA LAKESHORE 0126          220/ 13/ 16   N/A
KEWAUNEE LAKESHO 0200   46     170/ 10/ 11 1024.1R
SHEBOYGAN LAKESH 0200   47 50  150/ 12/ 13 1025.7R
PORT WASHINGTON  0100   48     160/  9/ 11 1025.7S
ATWATER BUOY     0200   48     140/ 12/ 14 1025.9R
MILWAUKEE LAKESH 0200   47     140/ 10/ 11   N/A
S MID LAKE BUOY  0150   49 54  100/  8/ 10 1025.6F   1
KENOSHA   LAKESH 0200   48     140/  8/ 10 1024.7S
$$

TC  - TEMPERATURE IN CELSIUS
VSB - VISIBILITY IN STATUTE MILES
WCI - WIND CHILL INDEX
HX  - HEAT INDEX




USA.gov is the U.S. government's official web portal to all federal, state and local government web resources and services.